Location: LDNL
(36.4545°S, 141.6685°E)
Time: 02:10:40
(UTC+10:00)

Envisat - Pass Details

Date: 07 March 2024
Orbit: 762 x 764 km, 98.3° (Epoch: 15 April)

Event Time Altitude Azimuth Distance (km) Brightness Sun altitude
Exits shadow 04:48:37 12° 208° (SSW) 2,180 5.4 -30.1°
Drops below altitude 10° 04:49:00 10° 206° (SSW) 2,326 5.6 -30.0°
Sets 04:51:26 0° 199° (SSW) 3,261 6.4 -29.6°
